Regional Weather Roundup
Issued by NWS

Home | Current Version | Previous Version | Graphics & Text | Print | Product List | Glossary On
Versions: 1 2 3 4 5 6 7 8 9 10 11 12 13 14 15 16 17 18 19 20 21 22 23 24 25 26 27 28 29 30 31 32 33 34 35 36 37 38 39 40 41 42 43 44 45 46 47 48 49 50
662
ASUS43 KDMX 221806
RWRIA

WEATHER ROUNDUP FOR IOWA
NATIONAL WEATHER SERVICE DES MOINES IA
100 PM CDT SUN APR 22 2018

NOTE: "FAIR" INDICATES FEW OR NO CLOUDS BELOW 12,000 FEET WITH NO
SIGNIFICANT WEATHER AND/OR OBSTRUCTIONS TO VISIBILITY.

* - THESE STATIONS ARE NOT NWS STATIONS...THUS NOT UNDER NWS
QUALITY CONTROL.  THEY ALSO DO NOT REPORT WEATHER SUCH
AS PRECIPITATION OR FOG.

IAZ001>003-012>014-020>022-031>034-043>046-221900-
   NORTHWEST IOWA

CITY           SKY/WX    TMP DP  RH WIND       PRES   REMARKS
CARROLL *      SUNNY     68  36  30 E14       30.23F
CHEROKEE *     SUNNY     58  39  50 E8        30.28S
DENISON *      CLOUDY    63  28  27 NE10G16   30.24F
LE MARS *      SUNNY     61  34  36 VRB6G14   30.27F
ORANGE CITY *  SUNNY     61  36  39 E9        30.28F
SHELDON *      SUNNY     57  36  44 SE8G18    30.28S
SIOUX CITY     SUNNY     63  31  30 E12G17    30.24F
6HR MIN TEMP:  36; 6HR MAX TEMP:  64;

SPENCER        SUNNY     55  38  52 E12       30.29F
6HR MIN TEMP:  34; 6HR MAX TEMP:  55;

STORM LAKE *   SUNNY     57  37  47 E15       30.26F
$$

IAZ055>058-069>071-079>083-090>094-221900-
   SOUTHWEST IOWA

CITY           SKY/WX    TMP DP  RH WIND       PRES   REMARKS
ATLANTIC *     MOSUNNY   64  32  29 NE12G22   30.20F
AUDUBON *      MOSUNNY   63  27  25 E13G18    30.23F
CLARINDA *     PTSUNNY   66  32  28 VRB7G20   30.18F
COUNCIL BLFS * CLOUDY    66  34  30 E12       30.20F
CRESTON *      SUNNY     64  32  29 E17       30.19F
HARLAN  *      SUNNY     63  32  31 E10G20    30.25S
LAMONI         CLOUDY    63  36  36 NE12      30.17F
6HR MIN TEMP:  47; 6HR MAX TEMP:  63;

RED OAK *      PTSUNNY   66  34  30 NE12G20   30.18F
SHENANDOAH *   MOSUNNY   66  34  30 NE10G16   30.18F
$$

IAZ047>049-059>061-072>074-084-221900-
   CENTRAL IOWA

CITY           SKY/WX    TMP DP  RH WIND       PRES   REMARKS
AMES           MOSUNNY   64  29  26 E10G20    30.23F
6HR MIN TEMP:  41; 6HR MAX TEMP:  64;

ANKENY *       MOSUNNY   64  25  22 E10G18    30.23S
BOONE *        PTSUNNY   61  27  27 E16G23    30.23F
CHARITON *     CLOUDY    63  32  31 E13       30.18F
DES MOINES     MOSUNNY   66  29  24 NE14      30.21F
6HR MIN TEMP:  47; 6HR MAX TEMP:  66;

GRINNELL*      PTSUNNY   63  22  21 E16       30.23F
KNOXVILLE *    CLOUDY    63  28  27 E9G17     30.19F
MARSHALLTOWN   MOSUNNY   63  27  25 E18G26    30.23F
6HR MIN TEMP:  41; 6HR MAX TEMP:  64;

NEWTON *       MOSUNNY   66  27  22 E17G23    30.22F
PELLA *        CLOUDY    65  26  22 E12G20    30.22F
PERRY *        FAIR      61  21  21 E8        30.23F
$$

IAZ004>006-015-016-023>025-035-036-221900-
   NORTH CENTRAL IOWA

CITY           SKY/WX    TMP DP  RH WIND       PRES   REMARKS
ALGONA *       SUNNY     55  37  50 E13       30.30F
CLARION *      SUNNY     61  34  36 E14G20    30.28F
ESTHERVILLE    CLOUDY    45  38  76 NE6       30.31S
6HR MIN TEMP:  31; 6HR MAX TEMP:  45;

FORT DODGE *   SUNNY     61  33  35 NE13      30.27F
MASON CITY     SUNNY     56  37  49 E15       30.31F
6HR MIN TEMP:  35; 6HR MAX TEMP:  56;

FOREST CITY *  FAIR      54  39  58 E8        30.31S
WEBSTER CITY * SUNNY     61  28  29 E12G21    30.24F
IOWA FALLS *   FAIR      62  31  31 E17       30.26F
$$

IAZ007>011-017>019-026>030-037>042-050>054-066-221900-
   NORTHEAST IOWA

CITY           SKY/WX    TMP DP  RH WIND       PRES   REMARKS
CEDAR RAPIDS   FAIR      64  24  21 E16G24    30.24F
6HR MIN TEMP:  45; 6HR MAX TEMP:  64;

CHARLES CITY * FAIR      59  30  33 E12G18    30.30F
DECORAH *      FAIR      57  28  33 E13       30.31F
DUBUQUE        FAIR      60  25  26 E12G20    30.29F
6HR MIN TEMP:  41; 6HR MAX TEMP:  60;

MONTICELLO *   FAIR      64  27  24 E14G22    30.27F
OELWEIN *      FAIR      61  30  31 E17       30.28F
WATERLOO       FAIR      62  30  29 E14G23    30.27F
6HR MIN TEMP:  38; 6HR MAX TEMP:  63;

$$

IAZ064-065-067-068-078-221900-
   EAST CENTRAL IOWA

CITY           SKY/WX    TMP DP  RH WIND       PRES   REMARKS
DAVENPORT      FAIR      64  20  18 E20G26    30.27F
6HR MIN TEMP:  44; 6HR MAX TEMP:  64;

IOWA CITY      FAIR      64  16  15 E16G26    30.25F
6HR MIN TEMP:  47; 6HR MAX TEMP:  64;

MT. PLEASANT * SUNNY     64  28  25 E13G20    30.20F
MUSCATINE *    FAIR      66  23  19 E12G22    30.23F
QUAD CITIES    FAIR      65  16  15 E18       30.24F
6HR MIN TEMP:  46; 6HR MAX TEMP:  65;

$$

IAZ062-063-075>077-085>089-095>099-221900-
   SOUTHEAST IOWA

CITY           SKY/WX    TMP DP  RH WIND       PRES   REMARKS
BURLINGTON     SUNNY     68  32  26 E14       30.18F
6HR MIN TEMP:  47; 6HR MAX TEMP:  68;

FAIRFIELD *    SUNNY     66  28  24 E18       30.19F
FORT MADISON * SUNNY     66  34  30 E12G18    30.19F
KEOKUK *       SUNNY     66  36  32 E10G18    30.17F
OSKALOOSA *    FAIR      65  28  24 E15G22    30.21F
CENTERVILLE *    N/A     64  36  34 E13       30.19F
OTTUMWA        SUNNY     65  31  28 E14G23    30.19F
6HR MIN TEMP:  45; 6HR MAX TEMP:  65;

WASHINGTON *   CLOUDY    66  28  24 E15G23    30.22F
$$

ABBREVIATIONS USED IN REMARKS
   TC - TEMPERATURES IN CELSIUS
  WCI - WIND CHILL INDEX
   HX - HEAT INDEX
  VSB - VISIBILITY
$$





USA.gov is the U.S. government's official web portal to all federal, state and local government web resources and services.